Simultaneous Nadir Overpasses (SNOs) Predictions

Prediction of SNOs between METOP-B and NOAA-19 Satellite Orbit:

Table of predicted SNOs for the next 14.0 days since TLE Epoch: 9/4/2015
Index Date (METOP-B) Time (METOP-B) Lat,Lon (METOP-B) SZA (METOP-B ) Date (NOAA-19) Time (NOAA-19) Lat,Lon (NOAA-19) SZA (NOAA-19 ) Distance(km) Time Diff (sec)
1 09/14/2015 06:10:08 75.56, 86.57 71.96 09/14/2015 06:08:59 75.59, 84.42 72.01 59.74 69
2 09/14/2015 07:00:57 -75.22,-107.11 108.37 09/14/2015 06:59:53 -75.20,-107.07 108.39 3.24 64
3 09/14/2015 07:51:37 75.20, 60.17 71.63 09/14/2015 07:50:53 75.20, 60.17 71.63 0.66 44
4 09/14/2015 08:42:19 -75.20,-132.51 108.36 09/14/2015 08:41:55 -75.17,-132.51 108.39 3.46 24
5 09/14/2015 09:32:59 75.18, 34.77 71.64 09/14/2015 09:32:55 75.17, 34.73 71.63 1.57 4
6
